Weather History for KACV - November, 2013

Change the Weather History Date:

Friday, November 29, 2013

  Actual Average Record
Temperature  
Mean Temperature 44 °F -  
Max Temperature 52 °F 55 °F 63 °F (1999)
Min Temperature 37 °F 40 °F 28 °F (2004)
Degree Days  
Heating Degree Days 20    
Moisture  
Dew Point 43 °F    
Average Humidity 91    
Maximum Humidity 97    
Minimum Humidity 80    
Precipitation  
Precipitation 0.00 in - - ()
Sea Level Pressure  
Sea Level Pressure 30.22 in    
Wind  
Wind Speed 2 mph (SSW)    
Max Wind Speed 7 mph    
Max Gust Speed -    
Visibility 5 miles    
Events Fog    
Averages and records for this station are not official NWS values.
T = Trace of Precipitation, MM = Missing Value Source: NWS Daily Summary

Daily Weather History Graph

Daily Weather History Graph

Search for Another Location

Airport or City:

Trip Planner

Search our weather history database for the weather conditions in past years. The results will help you decide how hot, cold, wet, or windy it might be!

Date:

Astronomy

Nov. 29, 2013 Rise Set
Actual Time 7:20 AM PST 4:49 PM PST
Civil Twilight 6:49 AM PST 5:19 PM PST
Nautical Twilight 6:15 AM PST 5:53 PM PST
Astronomical Twilight 5:42 AM PST 6:26 PM PST
Moon 3:30 AM PST (11/29) 2:38 PM PST (11/29)
Length of Visible Light 10h 30m
Length of Day
9h 29m
Waning Crescent, 13% of the Moon is Illuminated
Nov 29
Waning Crescent
Dec 2
New
Dec 9
First Quarter
Dec 17
Full
Dec 25
Last Quarter

Hourly Weather History & Observations

Time (PST) Temp. Windchill Dew Point Humidity Pressure Visibility Wind Dir Wind Speed Gust Speed Precip Events Conditions
12:53 AM 39.9 °F 36.7 °F 37.9 °F 93% 30.14 in 9.0 mi East 4.6 mph - N/A   Clear
1:53 AM 39.9 °F 37.8 °F 37.9 °F 93% 30.15 in 9.0 mi East 3.5 mph - N/A   Clear
2:53 AM 39.0 °F 35.7 °F 37.9 °F 96% 30.17 in 10.0 mi East 4.6 mph - N/A   Clear
3:53 AM 37.9 °F 35.5 °F 36.0 °F 93% 30.17 in 10.0 mi East 3.5 mph - N/A   Clear
4:53 AM 39.0 °F - 37.0 °F 93% 30.17 in 10.0 mi Calm Calm - N/A   Clear
5:00 AM 39.0 °F - 37.0 °F 93% 30.15 in 10.0 mi Calm Calm - N/A   Scattered Clouds
5:09 AM 37.9 °F - 36.0 °F 93% 30.15 in 10.0 mi Calm Calm - N/A   Mostly Cloudy
5:33 AM 37.9 °F 34.4 °F 36.0 °F 93% 30.15 in 10.0 mi East 4.6 mph - N/A   Scattered Clouds
5:53 AM 37.9 °F - 35.1 °F 89% 30.19 in 10.0 mi Calm Calm - N/A   Clear
6:49 AM 37.4 °F - 35.6 °F 93% 30.18 in 10.0 mi Calm Calm - N/A   Scattered Clouds
6:53 AM 37.9 °F - 36.0 °F 93% 30.20 in 10.0 mi Calm Calm - N/A   Mostly Cloudy
7:13 AM 39.9 °F - 37.9 °F 93% 30.18 in 1.8 mi Calm Calm - N/A   Overcast
7:25 AM 42.1 °F - 39.9 °F 92% 30.18 in 0.5 mi Calm Calm - N/A Fog Fog
7:28 AM 44.1 °F - 41.0 °F 89% 30.18 in 0.2 mi Calm Calm - N/A Fog Fog
7:44 AM 43.0 °F - 42.1 °F 97% 30.19 in 0.2 mi Calm Calm - N/A Fog Fog
7:53 AM 42.1 °F - 41.0 °F 96% 30.22 in 0.2 mi Calm Calm - N/A Fog Fog
8:35 AM 44.1 °F - 42.1 °F 93% 30.21 in 0.2 mi Calm Calm - N/A Fog Fog
8:53 AM 45.0 °F 43.5 °F 44.1 °F 97% 30.23 in 0.2 mi ESE 3.5 mph - N/A Fog Fog
9:10 AM 46.0 °F 44.8 °F 45.0 °F 96% 30.20 in 0.2 mi South 3.5 mph - N/A Fog Fog
9:20 AM 46.9 °F - 46.0 °F 97% 30.20 in 0.5 mi South 3.5 mph - N/A Fog Fog
9:25 AM 46.9 °F - 45.0 °F 93% 30.20 in 2.0 mi SSW 4.6 mph - N/A   Mostly Cloudy
9:31 AM 46.0 °F - 45.0 °F 96% 30.21 in 8.0 mi Calm Calm - N/A   Scattered Clouds
9:53 AM 46.9 °F - 45.0 °F 93% 30.25 in 4.0 mi West 3.5 mph - N/A   Partly Cloudy
10:00 AM 46.0 °F - 45.0 °F 96% 30.22 in 2.0 mi Calm Calm - N/A   Mostly Cloudy
10:29 AM 48.9 °F - 46.0 °F 90% 30.22 in 5.0 mi Calm Calm - N/A   Mostly Cloudy
10:37 AM 48.9 °F - 45.0 °F 86% 30.22 in 6.0 mi SW 3.5 mph - N/A   Scattered Clouds
10:53 AM 48.9 °F - 46.0 °F 90% 30.25 in 4.0 mi WSW 5.8 mph - N/A   Partly Cloudy
10:57 AM 48.0 °F - 45.0 °F 89% 30.23 in 1.8 mi WSW 5.8 mph - N/A   Scattered Clouds
11:06 AM 48.0 °F - 45.0 °F 89% 30.23 in 0.8 mi West 6.9 mph - N/A   Mist
11:15 AM 46.9 °F - 45.0 °F 93% 30.23 in 0.2 mi West 5.8 mph - N/A Fog Fog
11:23 AM 46.9 °F - 45.0 °F 93% 30.23 in 0.2 mi WNW 4.6 mph - N/A Fog Fog
11:38 AM 46.9 °F - 46.0 °F 97% 30.23 in 0.5 mi Calm Calm - N/A Fog Fog
11:45 AM 46.9 °F - 45.0 °F 93% 30.23 in 1.0 mi Calm Calm - N/A   Mist
11:49 AM 46.4 °F - 44.6 °F 93% 30.23 in 2.5 mi Calm Calm - N/A   Mostly Cloudy
11:53 AM 48.0 °F - 46.0 °F 93% 30.25 in 7.0 mi SW 3.5 mph - N/A   Mostly Cloudy
12:04 PM 48.9 °F - 46.0 °F 90% 30.21 in 10.0 mi Calm Calm - N/A   Scattered Clouds
12:30 PM 48.9 °F - 46.0 °F 90% 30.22 in 1.8 mi WNW 6.9 mph - N/A   Scattered Clouds
12:36 PM 48.9 °F - 46.0 °F 90% 30.21 in 0.8 mi WNW 5.8 mph - N/A   Mist
12:53 PM 48.9 °F - 46.0 °F 90% 30.24 in 1.8 mi West 5.8 mph - N/A   Overcast
12:56 PM 48.9 °F - 46.0 °F 90% 30.21 in 3.0 mi WSW 4.6 mph - N/A   Overcast
1:21 PM 51.1 °F - 46.0 °F 83% 30.20 in 7.0 mi Variable 3.5 mph - N/A   Scattered Clouds
1:53 PM 51.1 °F - 46.0 °F 83% 30.21 in 9.0 mi Calm Calm - N/A   Clear
2:53 PM 51.1 °F - 46.0 °F 83% 30.22 in 10.0 mi NW 3.5 mph - N/A   Clear
3:53 PM 52.0 °F - 46.0 °F 80% 30.22 in 10.0 mi Variable 3.5 mph - N/A   Clear
4:10 PM 50.0 °F - 45.0 °F 83% 30.20 in 2.5 mi West 3.5 mph - N/A   Haze
4:24 PM 50.0 °F - 46.0 °F 86% 30.20 in 3.0 mi Calm Calm - N/A   Clear
4:32 PM 50.0 °F - 46.0 °F 86% 30.21 in 2.5 mi Calm Calm - N/A   Clear
4:45 PM 48.9 °F - 45.0 °F 86% 30.20 in 3.0 mi Calm Calm - N/A   Clear
4:53 PM 48.0 °F - 45.0 °F 89% 30.23 in 2.5 mi Calm Calm - N/A   Clear
5:02 PM 48.0 °F - 44.1 °F 86% 30.21 in 4.0 mi Calm Calm - N/A   Clear
5:13 PM 46.9 °F - 44.1 °F 90% 30.22 in 4.0 mi NW 4.6 mph - N/A   Scattered Clouds
5:53 PM 46.9 °F - 44.1 °F 90% 30.25 in 6.0 mi Calm Calm - N/A   Clear
6:53 PM 45.0 °F 42.6 °F 42.1 °F 90% 30.26 in 6.0 mi ESE 4.6 mph - N/A   Clear
7:53 PM 45.0 °F - 43.0 °F 93% 30.28 in 7.0 mi Calm Calm - N/A   Clear
8:14 PM 45.0 °F - 42.1 °F 90% 30.26 in 2.5 mi Calm Calm - N/A   Partly Cloudy
8:32 PM 44.1 °F 42.5 °F 41.0 °F 89% 30.26 in 4.0 mi ESE 3.5 mph - N/A   Partly Cloudy
8:53 PM 44.1 °F 42.5 °F 42.1 °F 93% 30.30 in 6.0 mi ESE 3.5 mph - N/A   Scattered Clouds
9:01 PM 45.0 °F 43.5 °F 42.1 °F 90% 30.27 in 7.0 mi ESE 3.5 mph - N/A   Mostly Cloudy
9:40 PM 46.0 °F 43.9 °F 43.0 °F 89% 30.27 in 6.0 mi ESE 4.6 mph - N/A   Overcast
9:53 PM 46.9 °F - 44.1 °F 90% 30.30 in 7.0 mi ESE 3.5 mph - N/A   Overcast
10:42 PM 46.9 °F - 45.0 °F 93% 30.27 in 8.0 mi Calm Calm - N/A   Scattered Clouds
10:53 PM 46.9 °F - 44.1 °F 90% 30.29 in 7.0 mi Calm Calm - N/A   Clear
11:53 PM 46.0 °F - 44.1 °F 93% 30.29 in 6.0 mi Calm Calm - N/A   Clear